This is the latest recevied weather packets stored in our database for station/object KB0BS-13. If no packets are shown the sender has not sent any weather packets the latest 10 day(s).
| Time | Temp. | Humidity | Pressure | Rain* | Wind** | Luminosity | Snow |
|---|---|---|---|---|---|---|---|
| 1777178503 | 0.56° C | 99% | 1020.6 hPa | 0 mm | - | 0 W/m² | - |
| 1777178201 | 0.56° C | 99% | 1020.7 hPa | 0 mm | - | 0 W/m² | - |
| 1777177900 | 0.56° C | 99% | 1020.9 hPa | 0 mm | - | 0 W/m² | - |
| 1777177594 | 1.11° C | 99% | 1020.8 hPa | 0 mm | - | 0 W/m² | - |
| 1777177289 | 1.11° C | 99% | 1020.9 hPa | 0 mm | - | 0 W/m² | - |
| 1777176987 | 1.11° C | 99% | 1021 hPa | 0 mm | - | 0 W/m² | - |
| 1777176683 | 1.11° C | 99% | 1020.9 hPa | 0 mm | - | 0 W/m² | - |
| 1777176380 | 1.11° C | 99% | 1020.9 hPa | 0 mm | - | 0 W/m² | - |
| 1777176076 | 1.67° C | 99% | 1020.7 hPa | 0 mm | - | 0 W/m² | - |
| 1777175776 | 2.78° C | 99% | 1020.9 hPa | 0 mm | - | 0 W/m² | - |
| 1777175469 | 2.22° C | 99% | 1020.8 hPa | 0 mm | - | 0 W/m² | - |
| 1777175169 | 2.22° C | 99% | 1020.8 hPa | 0 mm | - | 0 W/m² | - |
| 1777174867 | 1.67° C | 99% | 1020.7 hPa | 0 mm | - | 0 W/m² | - |
| 1777174563 | 2.22° C | 99% | 1020.4 hPa | 0 mm | - | 0 W/m² | - |
| 1777174262 | 2.22° C | 99% | 1020.7 hPa | 0 mm | - | 0 W/m² | - |
| 1777173957 | 2.78° C | 99% | 1020.7 hPa | 0 mm | - | 0 W/m² | - |
| 1777173654 | 3.33° C | 99% | 1020.9 hPa | 0 mm | - | 0 W/m² | - |
| 1777173349 | 2.78° C | 99% | 1021 hPa | 0 mm | - | 0 W/m² | - |
| 1777173044 | 2.78° C | 99% | 1021.1 hPa | 0 mm | - | 0 W/m² | - |
| 1777172742 | 2.78° C | 99% | 1021.3 hPa | 0 mm | - | 0 W/m² | - |
| 1777172438 | 2.78° C | 99% | 1021.3 hPa | 0 mm | - | 0 W/m² | - |
| 1777172133 | 3.33° C | 99% | 1021.1 hPa | 0 mm | - | 0 W/m² | - |
| 1777171830 | 3.33° C | 99% | 1021.4 hPa | 0 mm | - | 0 W/m² | - |
| 1777171526 | 2.78° C | 99% | 1021.2 hPa | 0 mm | - | 0 W/m² | - |
| 1777171221 | 2.78° C | 99% | 1021.2 hPa | 0 mm | - | 0 W/m² | - |
* Rain latest hour (hover to see other rain measurements)
** Current wind speed in m/s (hover to see current wind gust speed)